Location: UFOWorks Observatory
(42.1050°N, 72.2350°W)
Time: 01:05:26
(UTC-04:00)

ISS - Visible Passes

Search period start: 31 July 2015 00:00
Search period end: 10 August 2015 00:00
Orbit: 402 x 403 km, 51.6° (Epoch: 30 July)

Date Brightness Start Highest point End Pass type
(mag) Time Alt. Az. Time Alt. Az. Time Alt. Az.
31 Jul -0.2 01:36:54 16° N 01:37:14 16° N 01:39:21 10° NE visible
31 Jul -1.6 03:11:21 10° NW 03:14:22 34° NNE 03:17:24 10° E visible
31 Jul -2.7 04:47:48 10° WNW 04:50:48 33° SW 04:53:46 10° SSE visible
31 Jul -3.3 21:26:52 10° SW 21:30:03 54° SE 21:33:15 10° ENE visible
31 Jul -1.1 23:03:49 10° W 23:06:39 26° NNW 23:08:54 13° NNE visible
01 Aug -0.8 02:22:00 21° NE 02:22:00 21° NE 02:23:52 10° ENE visible
01 Aug -3.5 03:54:55 13° WNW 03:57:48 66° SW 04:01:01 10° SE visible
01 Aug -2.4 20:34:12 10° SSW 20:37:01 28° SE 20:39:52 10° ENE visible
01 Aug -1.9 22:10:17 10° W 22:13:22 38° NNW 22:16:27 10° NE visible
01 Aug -0.3 23:48:17 10° NW 23:50:26 16° N 23:51:09 15° N visible
02 Aug -1.2 04:42:07 12° SSW 04:42:07 12° SSW 04:42:39 10° SSW visible
02 Aug -3.0 21:16:51 10° WSW 21:20:06 66° NNW 21:23:20 10° NE visible
02 Aug -0.5 22:54:32 10° WNW 22:56:58 19° NNW 22:59:23 10° NE visible
03 Aug 0.1 00:32:08 10° NW 00:32:32 12° NNW 00:32:32 12° NNW visible
03 Aug -0.9 22:00:44 10° WNW 22:03:29 24° NNW 22:06:13 10° NE visible
03 Aug -0.3 23:38:41 10° NW 23:40:43 15° N 23:41:04 15° N visible
04 Aug -1.6 21:06:57 10° W 21:09:58 34° NNW 21:13:01 10° NE visible
04 Aug -0.3 22:44:58 10° NW 22:47:05 16° N 22:49:11 10° NE visible
05 Aug 0.1 00:21:53 10° NW 00:22:04 11° NNW 00:22:04 11° NNW visible
05 Aug -0.5 21:51:02 10° WNW 21:53:24 18° NNW 21:55:45 10° NE visible
05 Aug -0.4 23:28:30 10° NW 23:30:24 16° N 23:30:24 16° N visible
06 Aug -0.8 20:57:01 10° WNW 20:59:41 23° NNW 21:02:21 10° NE visible
06 Aug -0.4 22:34:53 10° NW 22:36:56 15° N 22:38:40 11° NE visible
07 Aug -0.4 21:41:01 10° NW 21:43:06 16° N 21:45:10 10° NE visible
07 Aug -0.5 23:17:48 10° NW 23:19:24 18° N 23:19:24 18° N visible
08 Aug -0.6 20:46:55 10° NW 20:49:12 17° N 20:51:29 10° NE visible
08 Aug -0.8 22:24:15 10° NW 22:26:30 17° N 22:27:34 15° NE visible
09 Aug -0.5 21:30:29 10° NW 21:32:31 15° N 21:34:35 10° NE visible
09 Aug -0.7 23:06:44 10° NW 23:08:11 20° NNW 23:08:11 20° NNW visible
